This is the latest recevied weather packets stored in our database for station/object NO3U. If no packets are shown the sender has not sent any weather packets the latest 10 day(s).
| Time | Temp. | Humidity | Pressure | Rain* | Wind** | Luminosity | Snow |
|---|---|---|---|---|---|---|---|
| 1777387828 | 13.89° C | 90% | 1014.6 hPa | 0 mm | - | 88 W/m² | - |
| 1777387525 | 13.89° C | 90% | 1014.5 hPa | 0 mm | - | 107 W/m² | - |
| 1777387220 | 13.33° C | 90% | 1014.6 hPa | 0 mm | - | 74 W/m² | - |
| 1777386915 | 13.33° C | 90% | 1014.7 hPa | 0 mm | - | 94 W/m² | - |
| 1777386613 | 13.33° C | 91% | 1014.4 hPa | 0 mm | - | 72 W/m² | - |
| 1777386310 | 13.33° C | 91% | 1014.7 hPa | 0 mm | - | 85 W/m² | - |
| 1777386008 | 13.33° C | 91% | 1014.7 hPa | 0 mm | - | 117 W/m² | - |
| 1777385704 | 12.78° C | 92% | 1014.7 hPa | 0 mm | - | 77 W/m² | - |
| 1777385401 | 12.78° C | 92% | 1014.6 hPa | 0 mm | - | 56 W/m² | - |
| 1777385098 | 12.78° C | 92% | 1014.6 hPa | 0 mm | - | 86 W/m² | - |
| 1777384793 | 12.78° C | 92% | 1014.5 hPa | 0 mm | - | 78 W/m² | - |
| 1777384490 | 12.78° C | 92% | 1014.6 hPa | 0 mm | - | 59 W/m² | - |
| 1777384184 | 12.78° C | 93% | 1014.6 hPa | 0 mm | - | 65 W/m² | - |
| 1777383881 | 12.78° C | 93% | 1014.5 hPa | 0 mm | - | 60 W/m² | - |
| 1777383578 | 12.78° C | 92% | 1014.4 hPa | 0 mm | - | 72 W/m² | - |
| 1777383274 | 12.22° C | 92% | 1014.5 hPa | 0 mm | - | 58 W/m² | - |
| 1777382970 | 12.22° C | 93% | 1014.5 hPa | 0 mm | - | 50 W/m² | - |
| 1777382666 | 12.22° C | 93% | 1014.5 hPa | 0 mm | - | 54 W/m² | - |
| 1777382362 | 12.22° C | 93% | 1014.6 hPa | 0 mm | - | 54 W/m² | - |
| 1777382058 | 12.22° C | 92% | 1014.7 hPa | 0 mm | - | 54 W/m² | - |
| 1777381754 | 12.22° C | 94% | 1014.7 hPa | 0 mm | - | 49 W/m² | - |
| 1777381449 | 12.22° C | 95% | 1014.7 hPa | 0 mm | - | 56 W/m² | - |
| 1777381145 | 12.22° C | 94% | 1014.8 hPa | 0 mm | - | 47 W/m² | - |
| 1777380843 | 12.22° C | 94% | 1014.7 hPa | 0 mm | - | 43 W/m² | - |
| 1777380539 | 12.22° C | 94% | 1014.9 hPa | 0 mm | - | 42 W/m² | - |
* Rain latest hour (hover to see other rain measurements)
** Current wind speed in m/s (hover to see current wind gust speed)